Pagrindinis puslapis
METAR-TAF:

METAR-TAF

Oro uostai :

Tunisas, Tunisas

platuma: 36-50N, ilguma: 010-14E, Aukštis: 3 m

Dabartinis oras

Ataskaita buvo paskelbta 38 minutes, ne 06:30 UTC
Vėjas 2 kt iš Pietų
Temperatūra 10°C
Drėgmė 93%
Slėgis 1032 hPa
Matomumas 10 km arba daugiau
Mažai debesys ne aukštis 2600 ft

METAR: DTTA 230630Z 19002KT 9999 FEW026 10/09 Q1032

Laikas: 08:08 (07:08 UTC)

Prognozė

Ataskaita buvo paskelbta 2 valandos ir 8 minutes, ne 05:00 UTC
Prognozė galioja nuo 23 metu 06 UTC su 24 metu 06 UTC
Vėjas 4 kt iš Vakarų
Matomumas 10 km arba daugiau
Mažai debesys ne aukštis 2600 ft

TAF: DTTA 230500Z 2306/2406 26004KT 9999 FEW026

Orai ataskaitas ir orų prognozės (METAR, TAF).

turimą stotys yra geltonos ir raudonos taškus žemėlapyje.

Perkelti pele per norėdami pamatyti stoties vardą.

Tada spustelėkite, norėdami matyti oro stebėjimo ir prognozės.

Norėdami pakeisti žemėlapį: spustelėkite ant žalios mygtukų su juodo kryžiaus žemyn,; žalią mygtuką su brūkšneliu, jei norite nutolinti; arba žalių rodyklių gretimoms žemėlapius.


METAR-TAF: